カタログに戻る

STARLINK-4150

運用中通信VLEO
NORAD 53134·PAYLOAD·🇺🇸 United States

打ち上げ Jul 17, 2022 から Cape Canaveral Space Force Station

Loading…

次のパス (今後24時間)

TLE

最新Source: CelesTrak SupGP

元期: Sep 15, 2026, 01:29 UTC

1 53134C 22083C   26258.06229167 -.00032011  00000+0 -94599-3 0  2582
2 53134  53.1593  31.0319 0001161  80.7818 170.1693 15.34399417    16

AllMySatでSTARLINK-4150をリアルタイム追跡

Download on the App Store